FW7499 Weather Reports


time (UTC)temp
C
wind
direction
speed
KPH
gust
KPH
rain 1hr
cm
rain 24hr
cm
rain mn
cm
humidity
%
barometer
mb
20260906075507 26 232 0.0 4.8 0.00 0.00 0.00 80 1014.6
20260906075003 26 209 0.0 3.2 0.00 0.00 0.00 79 1014.4
20260906074512 26 151 0.0 4.8 0.00 0.00 0.00 79 1014.4
20260906074005 26 82 0.0 4.8 0.00 0.00 0.00 79 1014.4
20260906073507 26 86 0.0 3.2 0.00 0.00 0.00 79 1014.4
20260906073008 26 60 0.0 4.8 0.00 0.00 0.00 79 1014.4
20260906072512 26 60 0.0 4.8 0.00 0.00 0.00 79 1014.4
20260906072014 26 240 0.0 4.8 0.00 0.00 0.00 79 1014.4
20260906071511 26 240 0.0 4.8 0.00 0.00 0.00 79 1014.4
20260906071009 26 245 0.0 3.2 0.00 0.00 0.00 79 1014.6
20260906070511 26 178 0.0 3.2 0.00 0.00 0.00 79 1014.6
20260906070007 26 144 0.0 3.2 0.00 0.00 0.00 78 1014.6
20260906065510 26 200 0.0 3.2 0.00 0.00 0.00 78 1014.7
20260906065011 26 200 0.0 3.2 0.00 0.00 0.00 77 1014.7
20260906064523 26 197 0.0 3.2 0.00 0.00 0.00 77 1014.7
20260906064006 26 214 0.0 4.8 0.00 0.00 0.00 77 1014.8
20260906063507 26 107 0.0 4.8 0.00 0.00 0.00 77 1014.8
20260906063012 26 200 0.0 3.2 0.00 0.00 0.00 77 1014.9
20260906062510 26 200 0.0 3.2 0.00 0.00 0.00 77 1014.9
20260906062006 26 240 0.0 3.2 0.00 0.00 0.00 77 1014.9
20260906061515 26 240 0.0 3.2 0.00 0.00 0.00 77 1014.9
20260906061011 27 211 0.0 3.2 0.00 0.00 0.00 77 1014.9
20260906060517 26 100 0.0 3.2 0.00 0.00 0.00 77 1014.9
20260906060012 27 102 0.0 3.2 0.00 0.00 0.00 77 1014.8
20260906055509 27 103 1.6 3.2 0.00 0.00 0.00 77 1014.8
20260906055016 27 100 0.0 4.8 0.00 0.00 0.00 77 1014.9
20260906054507 27 111 0.0 4.8 0.00 0.00 0.00 77 1014.9
20260906054011 27 100 0.0 4.8 0.00 0.00 0.00 76 1014.9
20260906053514 27 98 1.6 4.8 0.00 0.00 0.00 76 1014.9
20260906053007 27 100 0.0 9.7 0.00 0.00 0.00 76 1014.8
20260906052510 27 99 1.6 9.7 0.00 0.00 0.00 76 1014.7
20260906052010 27 111 1.6 9.7 0.00 0.00 0.00 76 1014.7
20260906051511 27 121 1.6 6.4 0.00 0.00 0.00 76 1014.7
20260906051010 27 109 1.6 6.4 0.00 0.00 0.00 75 1014.8
20260906050511 27 136 1.6 6.4 0.00 0.00 0.00 75 1014.9
20260906050026 27 155 1.6 4.8 0.00 0.00 0.00 75 1014.9
20260906045514 27 109 0.0 6.4 0.00 0.00 0.00 75 1014.9
20260906045009 27 102 1.6 6.4 0.00 0.00 0.00 74 1014.9
20260906044523 27 111 0.0 6.4 0.00 0.00 0.00 74 1014.9
20260906044016 27 103 1.6 6.4 0.00 0.00 0.00 75 1014.9
20260906043508 27 102 1.6 6.4 0.00 0.00 0.00 74 1014.9
20260906043028 27 71 1.6 4.8 0.00 0.00 0.00 74 1014.9
20260906042514 27 91 1.6 4.8 0.00 0.00 0.00 74 1015.0
20260906042016 28 98 1.6 4.8 0.00 0.00 0.00 74 1015.0
20260906041511 28 90 0.0 4.8 0.00 0.00 0.00 74 1014.9
20260906041016 28 76 1.6 4.8 0.00 0.00 0.00 74 1015.0
20260906040513 28 79 0.0 6.4 0.00 0.00 0.00 74 1015.0
20260906040028 28 96 1.6 6.4 0.00 0.00 0.00 73 1015.0
20260906035508 28 94 1.6 6.4 0.00 0.00 0.00 74 1015.0
20260906035014 28 96 1.6 6.4 0.00 0.00 0.00 73 1015.0
20260906034533 28 96 0.0 6.4 0.00 0.00 0.00 73 1014.9
20260906034010 28 111 0.0 6.4 0.00 0.00 0.00 73 1014.9
20260906033513 28 88 0.0 6.4 0.00 0.00 0.00 73 1014.9
20260906033025 28 88 1.6 6.4 0.00 0.00 0.00 73 1014.8
20260906032516 28 96 3.2 4.8 0.00 0.00 0.00 73 1014.7
20260906032011 28 108 1.6 4.8 0.00 0.00 0.00 73 1014.7
20260906031519 28 93 0.0 4.8 0.00 0.00 0.00 73 1014.7
20260906031016 28 102 0.0 4.8 0.00 0.00 0.00 72 1014.7
20260906030515 29 96 1.6 4.8 0.00 0.00 0.00 72 1014.7
20260906030020 29 226 0.0 6.4 0.00 0.00 0.00 72 1014.4
20260906025513 29 128 3.2 6.4 0.00 0.00 0.00 72 1014.2
20260906025016 29 87 0.0 3.2 0.00 0.00 0.00 72 1014.2
20260906024519 29 101 0.0 3.2 0.00 0.00 0.00 72 1014.2
20260906024003 29 129 0.0 3.2 0.00 0.00 0.00 72 1014.1
20260906023503 29 137 0.0 4.8 0.00 0.00 0.00 72 1014.0
20260906023002 29 121 0.0 6.4 0.00 0.00 0.00 72 1014.0
20260906022503 29 109 0.0 6.4 0.00 0.00 0.00 71 1014.1
20260906022003 29 110 0.0 4.8 0.00 0.00 0.00 71 1014.0
20260906021504 30 96 0.0 6.4 0.00 0.00 0.00 71 1013.9
20260906021002 29 102 1.6 6.4 0.00 0.00 0.00 71 1013.8
20260906020508 30 106 0.0 6.4 0.00 0.00 0.00 71 1013.8
20260906020002 30 100 3.2 6.4 0.00 0.00 0.00 70 1013.7
20260906015502 30 119 0.0 3.2 0.00 0.00 0.00 71 1013.5
20260906015003 30 109 0.0 3.2 0.00 0.00 0.00 71 1013.4
20260906014505 30 99 0.0 3.2 0.00 0.00 0.00 71 1013.4
20260906014003 30 119 0.0 6.4 0.00 0.00 0.00 70 1013.4
20260906013502 30 118 3.2 6.4 0.00 0.00 0.00 70 1013.3
20260906013005 30 107 1.6 4.8 0.00 0.00 0.00 70 1013.2
20260906012503 30 103 0.0 3.2 0.00 0.00 0.00 70 1013.2
20260906012002 30 103 1.6 3.2 0.00 0.00 0.00 70 1013.2
20260906011503 30 107 0.0 4.8 0.00 0.00 0.00 69 1013.1
20260906011004 30 68 0.0 4.8 0.00 0.00 0.00 68 1013.1
20260906010503 30 111 0.0 9.7 0.00 0.00 0.00 68 1013.0
20260906010002 30 111 1.6 9.7 0.00 0.00 0.00 68 1013.0
20260906005503 30 76 4.8 9.7 0.00 0.00 0.00 68 1012.9
20260906005003 31 103 0.0 9.7 0.00 0.00 0.00 67 1012.9
20260906004504 31 109 3.2 6.4 0.00 0.00 0.00 67 1013.0
20260906004004 31 100 0.0 11.3 0.00 0.00 0.00 67 1013.0
20260906003503 31 117 1.6 11.3 0.00 0.00 0.00 65 1012.9
20260906003002 31 67 3.2 9.7 0.00 0.00 0.00 65 1012.9
20260906002501 31 113 3.2 9.7 0.00 0.00 0.00 65 1012.8
20260906002002 31 103 3.2 9.7 0.00 0.00 0.00 65 1012.7
20260906001503 31 96 1.6 12.9 0.00 0.00 0.00 64 1012.5
20260906001003 31 112 3.2 12.9 0.00 0.00 0.00 64 1012.5
20260906000505 32 116 3.2 11.3 0.00 0.00 0.00 64 1012.5
20260906000004 32 128 3.2 11.3 0.00 0.00 0.00 64 1012.6
20260905235502 32 105 1.6 11.3 0.00 0.00 0.00 64 1012.6
20260905235004 32 146 1.6 6.4 0.00 0.00 0.00 64 1012.6
20260905234506 32 119 1.6 8.0 0.00 0.00 0.00 63 1012.7
20260905234003 32 201 1.6 8.0 0.00 0.00 0.00 62 1012.8
20260905233503 32 96 1.6 8.0 0.00 0.00 0.00 62 1012.6
20260905233005 32 84 1.6 11.3 0.00 0.00 0.00 63 1012.6
20260905232503 32 83 1.6 11.3 0.00 0.00 0.00 1012.7
20260905232004 32 103 3.2 14.5 0.00 0.00 0.00 1012.7
20260905231503 32 36 1.6 14.5 0.00 0.00 0.00 1012.6
20260905231002 32 74 1.6 11.3 0.00 0.00 0.00 60 1012.7
20260905230508 32 223 1.6 6.4 0.00 0.00 0.00 60 1012.7
20260905230007 33 94 1.6 4.8 0.00 0.00 0.00 60 1012.7
20260905225504 33 117 1.6 8.0 0.00 0.00 0.00 59 1012.7
20260905225005 33 110 3.2 8.0 0.00 0.00 0.00 60 1012.7
20260905224523 33 115 1.6 9.7 0.00 0.00 0.00 59 1012.7
20260905224009 33 142 1.6 9.7 0.00 0.00 0.00 59 1012.6
20260905223511 33 137 1.6 9.7 0.00 0.00 0.00 61 1012.5
20260905223007 33 90 3.2 12.9 0.00 0.00 0.00 59 1012.5
20260905222509 33 205 3.2 12.9 0.00 0.00 0.00 58 1012.3
20260905222003 33 156 1.6 12.9 0.00 0.00 0.00 59 1012.3
20260905221501 33 212 1.6 12.9 0.00 0.00 0.00 59 1012.2
20260905221001 33 246 0.0 12.9 0.00 0.00 0.00 58 1012.2
20260905220505 33 216 0.0 9.7 0.00 0.00 0.00 58 1012.2
20260905220006 33 61 3.2 9.7 0.00 0.00 0.00 58 1012.1
20260905215506 33 103 3.2 12.9 0.00 0.00 0.00 57 1012.2
20260905215006 33 157 3.2 14.5 0.00 0.00 0.00 57 1012.3
20260905214503 33 183 3.2 14.5 0.00 0.00 0.00 57 1012.3
20260905214003 33 129 3.2 14.5 0.00 0.00 0.00 57 1012.4
20260905213507 33 144 4.8 14.5 0.00 0.00 0.00 57 1012.5
20260905213003 33 109 4.8 12.9 0.00 0.00 0.00 56 1012.5
20260905212504 33 94 1.6 11.3 0.00 0.00 0.00 57 1012.6
20260905212008 33 127 4.8 11.3 0.00 0.00 0.00 56 1012.6
20260905211517 33 32 1.6 17.7 0.00 0.00 0.00 57 1012.7
20260905211004 32 96 3.2 17.7 0.00 0.00 0.00 59 1012.9
20260905210504 33 108 4.8 16.1 0.00 0.00 0.00 59 1013.0
20260905210009 33 98 4.8 16.1 0.00 0.00 0.00 58 1013.2
20260905205505 32 82 4.8 16.1 0.00 0.00 0.00 58 1013.2
20260905205002 33 115 6.4 16.1 0.00 0.00 0.00 57 1013.3
20260905204506 33 81 3.2 11.3 0.00 0.00 0.00 57 1013.4
20260905204007 33 132 1.6 11.3 0.00 0.00 0.00 55 1013.6
20260905203506 33 105 4.8 11.3 0.00 0.00 0.00 54 1013.8
20260905203004 33 90 3.2 14.5 0.00 0.00 0.00 54 1013.8
20260905202505 33 65 3.2 16.1 0.00 0.00 0.00 54 1013.9
20260905202015 33 90 1.6 16.1 0.00 0.00 0.00 56 1014.0
20260905201504 33 84 3.2 12.9 0.00 0.00 0.00 55 1014.0
20260905201002 33 107 4.8 19.3 0.00 0.00 0.00 56 1014.2
20260905200511 32 107 4.8 20.9 0.00 0.00 0.00 57 1014.4
20260905200023 32 126 3.2 20.9 0.00 0.00 0.00 1014.7
20260905195503 33 94 8.0 20.9 0.00 0.00 0.00 56 1014.7
20260905195004 32 107 4.8 17.7 0.00 0.00 0.00 56 1014.9
20260905194505 32 80 4.8 16.1 0.00 0.00 0.00 56 1014.9
20260905194002 33 59 0.0 16.1 0.00 0.00 0.00 58 1014.9
20260905193511 32 111 3.2 16.1 0.00 0.00 0.00 59 1014.9
20260905193004 32 203 1.6 12.9 0.00 0.00 0.00 60 1014.9
20260905192509 32 94 4.8 16.1 0.00 0.00 0.00 58 1015.0
20260905192007 32 130 4.8 19.3 0.00 0.00 0.00 58 1015.1
20260905191513 32 107 8.0 16.1 0.00 0.00 0.00 58 1015.0
20260905191010 32 105 4.8 12.9 0.00 0.00 0.00 59 1015.2
20260905190502 32 71 1.6 17.7 0.00 0.00 0.00 63 1015.4
20260905190012 32 134 6.4 17.7 0.00 0.00 0.00 61 1015.4
20260905185510 32 114 4.8 19.3 0.00 0.00 0.00 59 1015.5
20260905185017 32 100 6.4 20.9 0.00 0.00 0.00 60 1015.7
20260905184504 32 109 6.4 20.9 0.00 0.00 0.00 61 1015.9
20260905184003 32 292 6.4 17.7 0.00 0.00 0.00 61 1016.0
20260905183506 32 309 3.2 20.9 0.00 0.00 0.00 62 1016.1
20260905183005 31 55 8.0 20.9 0.00 0.00 0.00 63 1016.2
20260905182505 31 114 9.7 19.3 0.00 0.00 0.00 63 1016.2
20260905182009 32 128 4.8 19.3 0.00 0.00 0.00 63 1016.2
20260905181513 31 162 4.8 22.5 0.00 0.00 0.00 62 1016.3
20260905181003 31 259 6.4 27.4 0.00 0.00 0.00 63 1016.3
20260905180512 31 111 6.4 27.4 0.00 0.00 0.00 62 1016.3
20260905180008 31 76 1.6 19.3 0.00 0.00 0.00 64 1016.2
20260905175515 31 344 1.6 19.3 0.00 0.00 0.00 66 1016.1
20260905175007 31 319 4.8 16.1 0.00 0.00 0.00 65 1016.1
20260905174518 31 45 6.4 16.1 0.00 0.00 0.00 64 1016.2
20260905174013 31 94 3.2 14.5 0.00 0.00 0.00 66 1016.1
20260905173506 31 142 4.8 14.5 0.00 0.00 0.00 64 1016.1
20260905173003 31 98 3.2 20.9 0.00 0.00 0.00 64 1016.2
20260905172504 31 332 6.4 20.9 0.00 0.00 0.00 64 1016.1
20260905172009 31 352 1.6 17.7 0.00 0.00 0.00 62 1016.2
20260905171518 31 341 1.6 9.7 0.00 0.00 0.00 63 1016.2
20260905171013 32 320 4.8 8.0 0.00 0.00 0.00 62 1016.2
20260905170510 31 193 3.2 9.7 0.00 0.00 0.00 64 1016.2
20260905170016 32 323 4.8 12.9 0.00 0.00 0.00 61 1016.3
20260905165511 32 71 3.2 12.9 0.00 0.00 0.00 62 1016.2
20260905165013 32 5 3.2 8.0 0.00 0.00 0.00 61 1016.2
20260905164524 32 360 1.6 8.0 0.00 0.00 0.00 62 1016.2
20260905164006 32 339 3.2 6.4 0.00 0.00 0.00 62 1016.3
20260905163510 32 336 1.6 12.9 0.00 0.00 0.00 64 1016.2
20260905163018 32 56 1.6 12.9 0.00 0.00 0.00 64 1016.2
20260905162521 32 352 3.2 8.0 0.00 0.00 0.00 60 1016.2
20260905162007 32 352 3.2 6.4 0.00 0.00 0.00 61 1016.2
20260905161507 32 360 3.2 6.4 0.00 0.00 0.00 62 1016.2
20260905161006 32 352 3.2 6.4 0.00 0.00 0.00 62 1016.0
20260905160503 32 352 0.0 6.4 0.00 0.00 0.00 60 1015.8
20260905160030 31 340 1.6 3.2 0.00 0.00 0.00 59 1015.8
20260905155511 31 340 0.0 3.2 0.00 0.00 0.00 64 1015.8
20260905155009 31 340 0.0 3.2 0.00 0.00 0.00 62 1015.7
20260905154509 31 340 1.6 3.2 0.00 0.00 0.00 64 1015.7
20260905154012 31 344 1.6 3.2 0.00 0.00 0.00 63 1015.7
20260905153510 31 41 0.0 3.2 0.00 0.00 0.00 67 1015.7
20260905153009 30 37 1.6 3.2 0.00 0.00 0.00 65 1015.7
20260905152512 30 107 0.0 3.2 0.00 0.00 0.00 65 1015.6
20260905152009 30 107 0.0 3.2 0.00 0.00 0.00 65 1015.5
20260905151531 29 113 0.0 3.2 0.00 0.00 0.00 68 1015.5
20260905151008 28 113 0.0 3.2 0.00 0.00 0.00 67 1015.3
20260905150508 28 113 0.0 3.2 0.00 0.00 0.00 71 1015.3
20260905150011 28 113 0.0 3.2 0.00 0.00 0.00 67 1015.3
20260905145521 28 113 1.6 3.2 0.00 0.00 0.00 67 1015.3
20260905145012 28 112 0.0 3.2 0.00 0.00 0.00 70 1015.3
20260905144522 28 112 0.0 3.2 0.00 0.00 0.00 68 1015.2
20260905144009 28 111 1.6 4.8 0.00 0.00 0.00 68 1015.1
20260905143507 28 96 1.6 4.8 0.00 0.00 0.00 68 1014.9
20260905143025 28 105 0.0 4.8 0.00 0.00 0.00 69 1014.7
20260905142508 28 100 1.6 4.8 0.00 0.00 0.00 69 1014.7
20260905142014 28 115 1.6 3.2 0.00 0.00 0.00 70 1014.7
20260905141519 28 88 1.6 6.4 0.00 0.00 0.00 71 1014.7
20260905141015 27 242 0.0 6.4 0.00 0.00 0.00 71 1014.4
20260905140517 27 252 1.6 6.4 0.00 0.00 0.00 72 1014.3
20260905140012 27 223 0.0 3.2 0.00 0.00 0.00 73 1014.1
20260905135514 27 105 0.0 3.2 0.00 0.00 0.00 74 1014.3
20260905135010 27 96 0.0 9.7 0.00 0.00 0.00 74 1014.4
20260905134516 27 96 3.2 9.7 0.00 0.00 0.00 74 1014.5
20260905134011 26 96 3.2 4.8 0.00 0.00 0.00 75 1014.6
20260905133515 26 283 1.6 1.6 0.00 0.00 0.00 77 1014.7
20260905133021 26 283 0.0 0.0 0.00 0.00 0.00 80 1014.8
20260905132512 26 283 0.0 0.0 0.00 0.00 0.00 78 1014.6
20260905132017 25 283 0.0 0.0 0.00 0.00 0.00 81 1014.4
20260905131541 25 283 0.0 0.0 0.00 0.00 0.00 80 1014.2
20260905131016 25 283 0.0 0.0 0.00 0.00 0.00 80 1014.1
20260905130516 24 283 0.0 0.0 0.00 0.00 0.00 81 1014.1
20260905130027 24 283 0.0 0.0 0.00 0.00 0.00 82 1014.1
20260905125515 23 283 0.0 0.0 0.00 0.00 0.00 83 1014.0
20260905125010 23 283 0.0 0.0 0.00 0.00 0.00 83 1014.0
20260905124527 23 283 0.0 0.0 0.00 0.00 0.00 84 1014.0
20260905124007 23 283 0.0 0.0 0.00 0.00 0.00 85 1013.9
20260905123510 23 283 0.0 0.0 0.00 0.00 0.00 85 1013.8
20260905123019 23 283 0.0 0.0 0.00 0.00 0.00 84 1013.7
20260905122516 23 283 0.0 0.0 0.00 0.00 0.00 84 1013.5
20260905122012 23 283 0.0 0.0 0.00 0.00 0.00 84 1013.4
20260905121525 23 283 0.0 0.0 0.00 0.00 0.00 84 1013.4
20260905121018 23 284 0.0 0.0 0.00 0.00 0.00 84 1013.4
20260905120515 23 283 0.0 0.0 0.00 0.00 0.00 85 1013.3
20260905120018 23 283 0.0 0.0 0.00 0.00 0.00 85 1013.3
20260905115513 23 283 0.0 0.0 0.00 0.00 0.00 85 1013.2
20260905115014 23 283 0.0 0.0 0.00 0.00 0.00 86 1013.2
20260905114538 23 283 0.0 0.0 0.00 0.00 0.00 86 1013.3
20260905114015 23 283 0.0 0.0 0.00 0.00 0.00 86 1013.4
20260905113518 23 283 0.0 0.0 0.00 0.00 0.00 87 1013.4
20260905113034 23 283 0.0 0.0 0.00 0.00 0.00 87 1013.5
20260905112512 23 283 0.0 0.0 0.00 0.00 0.00 86 1013.4
20260905112002 23 283 0.0 0.0 0.00 0.00 0.00 86 1013.3
20260905111504 23 283 0.0 0.0 0.00 0.00 0.00 86 1013.1
20260905111002 23 283 0.0 0.0 0.00 0.00 0.00 87 1013.2
20260905110503 23 283 0.0 0.0 0.00 0.00 0.00 86 1013.1
20260905110003 23 283 0.0 0.0 0.00 0.00 0.00 86 1013.0
20260905105505 23 283 0.0 0.0 0.00 0.00 0.00 87 1013.1
20260905105004 23 283 0.0 0.0 0.00 0.00 0.00 86 1013.1
20260905104510 23 283 0.0 0.0 0.00 0.00 0.00 86 1013.1
20260905104002 23 283 0.0 0.0 0.00 0.00 0.00 86 1013.0
20260905103502 23 283 0.0 0.0 0.00 0.00 0.00 86 1013.1
20260905103010 23 283 0.0 0.0 0.00 0.00 0.00 86 1012.9
20260905102503 23 283 0.0 0.0 0.00 0.00 0.00 86 1012.9
20260905102006 23 283 0.0 0.0 0.00 0.00 0.00 86 1012.9
20260905101504 23 283 0.0 0.0 0.00 0.00 0.00 86 1012.8
20260905101003 23 283 0.0 0.0 0.00 0.00 0.00 86 1012.8
20260905100506 23 283 0.0 0.0 0.00 0.00 0.00 86 1012.8
20260905100010 23 283 0.0 0.0 0.00 0.00 0.00 86 1012.8
20260905095502 23 283 0.0 0.0 0.00 0.00 0.00 86 1012.8
20260905095003 23 283 0.0 0.0 0.00 0.00 0.00 86 1012.7
20260905094510 23 283 0.0 0.0 0.00 0.00 0.00 86 1012.6
20260905094004 23 283 0.0 0.0 0.00 0.00 0.00 86 1012.6
20260905093507 23 283 0.0 0.0 0.00 0.00 0.00 86 1012.5
20260905093003 23 283 0.0 0.0 0.00 0.00 0.00 85 1012.4
20260905092504 23 283 0.0 0.0 0.00 0.00 0.00 84 1012.4
20260905092001 23 283 0.0 0.0 0.00 0.00 0.00 84 1012.4
20260905091504 23 283 0.0 0.0 0.00 0.00 0.00 84 1012.4
20260905091002 23 283 0.0 0.0 0.00 0.00 0.00 84 1012.5
20260905090502 23 283 0.0 0.0 0.00 0.00 0.00 85 1012.6
20260905090004 23 283 0.0 0.0 0.00 0.00 0.00 84 1012.7
20260905085508 23 283 0.0 0.0 0.00 0.00 0.00 84 1012.7
20260905085009 24 283 0.0 0.0 0.00 0.00 0.00 84 1012.7
20260905084507 24 283 0.0 0.0 0.00 0.00 0.00 84 1012.7
20260905084004 24 283 0.0 0.0 0.00 0.00 0.00 84 1012.8
20260905083503 24 283 0.0 0.0 0.00 0.00 0.00 84 1012.9
20260905083005 24 283 0.0 0.0 0.00 0.00 0.00 84 1012.9
20260905082505 24 283 0.0 0.0 0.00 0.00 0.00 84 1012.9
20260905082004 24 283 0.0 0.0 0.00 0.00 0.00 84 1012.9
20260905081508 24 283 0.0 0.0 0.00 0.00 0.00 83 1012.9
20260905081004 24 283 0.0 0.0 0.00 0.00 0.00 83 1013.0
20260905080505 25 283 0.0 0.0 0.00 0.00 0.00 83 1013.0
20260905080008 25 283 0.0 0.0 0.00 0.00 0.00 83 1013.0